[Iaude] MPEC J131: 2015 VR202 [a=35.03,e=0.05,i=4.3,H=9.3]

mpec at marsden.cfa.harvard.edu mpec at marsden.cfa.harvard.edu
Mon May 10 00:42:26 EDT 2021


M.P.E.C. 2021-J131                                 Issued 2021 May 10, 04:40 UT

     The Minor Planet Electronic Circulars contain information on unusual
         minor planets and routine data on comets.  They are published
    on behalf of Division F of the International Astronomical Union by the
          Minor Planet Center, Smithsonian Astrophysical Observatory,
                          Cambridge, MA 02138, U.S.A.

             Prepared using the Tamkin Foundation Computer Network

                              MPC at CFA.HARVARD.EDU
            URL https://www.minorplanetcenter.net/    ISSN 1523-6714

                                   2015 VR202                                   


Observations:
     K15VK2R RC2015 08 20.56332 03 27 16.771+15 58 01.35         24.8 wVEJ131568
     K15VK2R RC2015 09 07.60859 03 27 12.469+15 55 54.67         24.6 wVEJ131568
     K15VK2R RC2015 09 12.45964 03 27 04.912+15 54 58.30         24.6 wVEJ131568
     K15VK2R RC2015 10 07.50935 03 25 46.483+15 47 58.02         24.6 wVEJ131568
     K15VK2R RC2015 10 07.56783 03 25 46.221+15 47 56.93         24.8 wVEJ131568
     K15VK2R RC2015 10 09.54866 03 25 37.532+15 47 15.86         24.6 wVEJ131568
     K15VK2R*RC2015 11 06.32308 03 23 09.611+15 36 35.05         23.9 rVEJ131568
     K15VK2R RC2015 11 06.38643 03 23 09.249+15 36 33.32         24.2 rVEJ131568
     K15VK2R RC2015 11 06.45719 03 23 08.817+15 36 32.06         24.5 rVEJ131568
     K15VK2R RC2015 11 07.47849 03 23 02.757+15 36 07.12         24.5 wVEJ131568
     K15VK2R RC2015 11 17.45967 03 22 02.854+15 32 07.99         24.5 wVEJ131568
     K15VK2R RC2015 11 17.54796 03 22 02.302+15 32 05.91         24.4 wVEJ131568
     K15VK2R RC2015 12 06.32589 03 20 12.788+15 25 11.15         24.8 wVEJ131568
     K15VK2R RC2015 12 06.45961 03 20 12.047+15 25 08.43         24.6 wVEJ131568
     K15VK2R RC2015 12 31.37031 03 18 15.345+15 18 31.36         24.6 wVEJ131568
     K15VK2R RC2016 01 07.39971 03 17 51.999+15 17 23.72         24.7 wVEJ131568
     K15VK2R RC2016 02 05.29926 03 17 14.152+15 16 51.31         24.9 wVEJ131568
     K15VK2R RC2016 02 11.25262 03 17 18.864+15 17 35.09         24.7 wVEJ131568
     K15VK2R RC2016 09 07.60834 03 34 51.127+16 16 40.42         25.0 wVEJ131568
     K15VK2R RC2016 09 27.53529 03 34 05.904+16 12 06.31         24.8 wVEJ131568
     K15VK2R RC2016 10 07.52743 03 33 27.958+16 09 02.87               VEJ131568
     K15VK2R RC2016 10 07.53507 03 33 27.942+16 09 02.44               VEJ131568
     K15VK2R RC2016 10 07.62286 03 33 27.566+16 09 00.71         24.6 wVEJ131568
     K15VK2R RC2016 10 09.52781 03 33 19.322+16 08 22.92         24.2 wVEJ131568
     K15VK2R RC2016 10 09.59992 03 33 18.994+16 08 21.40         24.8 wVEJ131568
     K15VK2R RC2016 10 10.55675 03 33 14.732+16 08 02.07         24.6 wVEJ131568
     K15VK2R RC2016 10 10.60523 03 33 14.516+16 08 01.06         24.8 wVEJ131568
     K15VK2R RC2016 10 28.47637 03 31 43.236+16 01 30.75         24.5 wVEJ131568
     K15VK2R RC2016 10 29.53828 03 31 37.223+16 01 06.43         24.6 wVEJ131568
     K15VK2R RC2016 10 29.55586 03 31 37.119+16 01 05.89         24.5 wVEJ131568
     K15VK2R RC2016 11 02.59127 03 31 13.906+15 59 32.45         24.7 wVEJ131568

Observer details:
568 Mauna Kea.  Observer .  Measurers E. J. Ashton, J. J. Kavelaars, B. J.
    Gladman.  3.6-m Canada-France-Hawaii Telescope + CCD.

Orbital elements:
2015 VR202                                                                      
Epoch 2021 July 5.0 TT = JDT 2459400.5                  Alexandersen              
M 319.21108              (2000.0)            P               Q                  
n   0.00475352     Peri.  275.53921     -0.30586074     -0.95193976             
a  35.0315163      Node   192.30732     +0.90072248     -0.28383545             
e   0.0540284      Incl.    4.33757     +0.30846105     -0.11510054             
P 207              H    9.37          G   0.15           U   6                  
Residuals in seconds of arc
150820 568  0.0   0.0     151117 568  0.2-  0.0     161007 568  0.1+  0.1-
150907 568  0.1+  0.1-    151206 568  0.1-  0.1-    161009 568  0.1+  0.0
150912 568  0.1+  0.0     151206 568  0.0   0.1-    161009 568  0.0   0.0
151007 568  0.0   0.0     151231 568  0.1+  0.0     161010 568  0.0   0.0
151007 568  0.1-  0.1+    160107 568  0.1+  0.0     161010 568  0.1+  0.0
151009 568  0.0   0.0     160205 568  0.0   0.0     161028 568  0.1+  0.0
151106 568  0.1-  0.0     160211 568  0.0   0.1+    161029 568  0.0   0.1+
151106 568  0.1+  0.2-    160907 568  0.0   0.0     161029 568  0.1-  0.0
151106 568  0.0   0.2+    160927 568  0.1+  0.0     161102 568  0.1-  0.0
151107 568  0.1+  0.0     161007 568  0.2-  0.2+
151117 568  0.0   0.0     161007 568  0.0   0.1-

Ephemeris:
2015 VR202               a,e,i = 35.03, 0.05, 4                  q = 33.1388
Date    TT    R. A. (2000) Decl.     Delta      r    Elong.  Phase     V
2021 04 10    03 58 52.0 +17 12 23  34.4019 33.6546    41.2     1.1    24.9
...
2021 04 25    04 00 36.1 +17 18 04  34.5458 33.6529    27.0     0.8    24.8
...
2021 05 03    04 01 36.7 +17 21 10  34.6000 33.6520    19.6     0.6    24.8
...
2021 05 09    04 02 23.9 +17 23 30  34.6296 33.6513    14.1     0.4    24.8
2021 05 10    04 02 31.8 +17 23 54  34.6336 33.6512    13.2     0.4    24.8
2021 05 11    04 02 39.8 +17 24 17  34.6374 33.6511    12.3     0.4    24.8
...
2021 05 17    04 03 28.3 +17 26 35  34.6539 33.6504     7.0     0.2    24.8
...
2021 05 25    04 04 33.5 +17 29 34  34.6605 33.6495     3.4     0.1    24.7
...
2021 06 09    04 06 35.1 +17 34 47  34.6254 33.6479    15.4     0.5    24.8

M. P. C. Staff               (C) Copyright 2021 MPC           M.P.E.C. 2021-J131




More information about the Iaude mailing list